Location: Lichtensteig
(47.3376°N, 9.0841°E)
Time: 15:48:35
(UTC+00:00)

FENGYUN 1C DEB - Pass Details

Date: 27 September 2021
Orbit: 837 x 877 km, 98.7° (Epoch: 18 October)

Event Time Altitude Azimuth Distance (km) Brightness Sun altitude
Rises 19:29:20 0° 219° (SW) 3,459 ? -23.6°
Reaches altitude 10° 19:33:08 10° 245° (WSW) 2,530 ? -24.2°
Maximum altitude 19:35:48 13° 274° (W) 2,294 ? -24.6°
Drops below altitude 10° 19:38:28 10° 302° (WNW) 2,539 ? -25.0°
Sets 19:42:18 0° 329° (NNW) 3,481 ? -25.6°
